EN

Hourly Weather Abapo

Today, 12 June, Saturday

Time Temperature Precipitation Wind Pressure Humidity
00:00 +14°C° 0 mm 1 mps 716 mmHg 64%
01:00 +13°C° 0 mm 1 mps 715 mmHg 67%
02:00 +13°C° 0 mm 1 mps 715 mmHg 69%
03:00 +12°C° 0 mm 1 mps 715 mmHg 71%
04:00 +12°C° 0 mm 1 mps 715 mmHg 72%
05:00 +11°C° 0 mm 1 mps 715 mmHg 74%
06:00 +12°C° 0 mm 1 mps 715 mmHg 69%
07:00 +13°C° 0 mm 1 mps 716 mmHg 65%
08:00 +14°C° 0 mm 1 mps 716 mmHg 60%
09:00 +19°C° 0 mm 1 mps 716 mmHg 51%
10:00 +22°C° 0 mm 1 mps 716 mmHg 43%
11:00 +25°C° 0 mm 1 mps 716 mmHg 34%
12:00 +26°C° 0 mm 1 mps 715 mmHg 31%
13:00 +27°C° 0 mm 2 mps 714 mmHg 28%
14:00 +28°C° 0 mm 2 mps 713 mmHg 25%
15:00 +27°C° 0 mm 2 mps 712 mmHg 27%
16:00 +26°C° 0 mm 2 mps 712 mmHg 29%
17:00 +25°C° 0 mm 2 mps 711 mmHg 31%
18:00 +22°C° 0 mm 1 mps 712 mmHg 39%
19:00 +20°C° 0 mm 1 mps 712 mmHg 47%
20:00 +16°C° 0 mm 1 mps 712 mmHg 54%
21:00 +15°C° 0 mm 1 mps 713 mmHg 57%
22:00 +15°C° 0 mm 1 mps 713 mmHg 59%
23:00 +14°C° 0 mm 1 mps 713 mmHg 61%

Tomorrow, 13 June, Sunday

Time Temperature Precipitation Wind Pressure Humidity
00:00 +14°C° 0 mm 1 mps 712 mmHg 63%
01:00 +13°C° 0 mm 1 mps 712 mmHg 65%
02:00 +13°C° 0 mm 1 mps 712 mmHg 66%
03:00 +13°C° 0 mm 1 mps 712 mmHg 67%
04:00 +12°C° 0 mm 1 mps 712 mmHg 68%
05:00 +12°C° 0 mm 1 mps 711 mmHg 69%
06:00 +13°C° 0 mm 1 mps 712 mmHg 64%
07:00 +14°C° 0 mm 1 mps 713 mmHg 60%
08:00 +15°C° 0 mm 0 mps 713 mmHg 55%
09:00 +20°C° 0 mm 1 mps 713 mmHg 46%
10:00 +23°C° 0 mm 2 mps 713 mmHg 38%
11:00 +26°C° 0 mm 2 mps 713 mmHg 30%
12:00 +28°C° 0 mm 3 mps 712 mmHg 27%
13:00 +29°C° 0 mm 3 mps 711 mmHg 24%
14:00 +32°C° 0 mm 4 mps 710 mmHg 22%
15:00 +30°C° 0 mm 3 mps 710 mmHg 25%
16:00 +28°C° 0 mm 3 mps 710 mmHg 29%
17:00 +27°C° 0 mm 3 mps 709 mmHg 33%
18:00 +24°C° 0 mm 2 mps 710 mmHg 42%
19:00 +20°C° 0 mm 2 mps 710 mmHg 51%
20:00 +19°C° 0 mm 1 mps 710 mmHg 60%
21:00 +18°C° 0 mm 1 mps 710 mmHg 63%
22:00 +16°C° 0 mm 1 mps 711 mmHg 66%
23:00 +15°C° 0 mm 1 mps 711 mmHg 69%

Day after tomorrow, 14 June, Monday

Time Temperature Precipitation Wind Pressure Humidity
00:00 +15°C° 0 mm 1 mps 710 mmHg 70%
01:00 +15°C° 0 mm 1 mps 710 mmHg 71%
02:00 +14°C° 0 mm 1 mps 710 mmHg 72%
03:00 +14°C° 0 mm 1 mps 710 mmHg 72%
04:00 +14°C° 0 mm 1 mps 710 mmHg 72%
05:00 +13°C° 0 mm 1 mps 710 mmHg 73%
06:00 +14°C° 0 mm 1 mps 710 mmHg 67%
07:00 +16°C° 0 mm 1 mps 711 mmHg 62%
08:00 +16°C° 0 mm 0 mps 712 mmHg 57%
09:00 +21°C° 0 mm 1 mps 712 mmHg 49%
10:00 +24°C° 0 mm 1 mps 712 mmHg 41%
11:00 +27°C° 0 mm 1 mps 712 mmHg 33%
12:00 +29°C° 0 mm 2 mps 711 mmHg 31%
13:00 +31°C° 0 mm 2 mps 711 mmHg 30%
14:00 +34°C° 0 mm 2 mps 710 mmHg 28%
15:00 +33°C° 0 mm 3 mps 710 mmHg 32%
16:00 +30°C° 0 mm 3 mps 709 mmHg 36%
17:00 +29°C° 0 mm 3 mps 709 mmHg 40%
18:00 +27°C° 0 mm 2 mps 710 mmHg 49%
19:00 +24°C° 0 mm 2 mps 710 mmHg 57%
20:00 +22°C° 0 mm 1 mps 711 mmHg 66%
21:00 +21°C° 0 mm 1 mps 711 mmHg 68%
22:00 +20°C° 0 mm 1 mps 712 mmHg 71%
23:00 +19°C° 0 mm 1 mps 712 mmHg 74%

15 June, Tuesday

Time Temperature Precipitation Wind Pressure Humidity
00:00 +19°C° 0 mm 1 mps 712 mmHg 75%
01:00 +19°C° 0 mm 1 mps 712 mmHg 75%
02:00 +18°C° 0 mm 1 mps 712 mmHg 75%
03:00 +18°C° 0 mm 1 mps 713 mmHg 74%
04:00 +18°C° 0 mm 1 mps 713 mmHg 73%
05:00 +17°C° 0 mm 2 mps 713 mmHg 71%
06:00 +18°C° 0 mm 2 mps 714 mmHg 66%
07:00 +19°C° 0 mm 2 mps 715 mmHg 61%
08:00 +21°C° 0 mm 1 mps 716 mmHg 56%
09:00 +21°C° 0 mm 2 mps 716 mmHg 53%
10:00 +23°C° 0 mm 2 mps 716 mmHg 49%
11:00 +25°C° 0 mm 2 mps 717 mmHg 46%
12:00 +26°C° 0 mm 2 mps 716 mmHg 44%
13:00 +27°C° 0 mm 3 mps 715 mmHg 42%
14:00 +28°C° 0 mm 3 mps 715 mmHg 41%
15:00 +27°C° 0 mm 3 mps 714 mmHg 45%
16:00 +26°C° 0 mm 3 mps 714 mmHg 49%
17:00 +25°C° 0 mm 3 mps 714 mmHg 54%
18:00 +22°C° 0 mm 3 mps 714 mmHg 59%
19:00 +20°C° 0 mm 2 mps 715 mmHg 65%
20:00 +19°C° 0 mm 2 mps 715 mmHg 70%
21:00 +19°C° 0 mm 1 mps 715 mmHg 73%
22:00 +18°C° 0 mm 1 mps 715 mmHg 76%
23:00 +16°C° 0 mm 1 mps 715 mmHg 79%

16 June, Wednesday

Time Temperature Precipitation Wind Pressure Humidity
00:00 +18°C° 0 mm 1 mps 715 mmHg 78%
01:00 +18°C° 0 mm 1 mps 715 mmHg 77%
02:00 +18°C° 0 mm 1 mps 715 mmHg 76%
03:00 +18°C° 0 mm 1 mps 715 mmHg 76%
04:00 +16°C° 0 mm 0 mps 715 mmHg 76%
05:00 +15°C° 0 mm 0 mps 715 mmHg 76%
06:00 +18°C° 0 mm 1 mps 715 mmHg 74%
07:00 +18°C° 0 mm 1 mps 715 mmHg 72%
08:00 +18°C° 0 mm 1 mps 716 mmHg 70%
09:00 +19°C° 0 mm 1 mps 716 mmHg 68%
10:00 +19°C° 0 mm 1 mps 716 mmHg 66%
11:00 +19°C° 0 mm 1 mps 716 mmHg 65%
12:00 +20°C° 0 mm 1 mps 715 mmHg 62%
13:00 +21°C° 0 mm 1 mps 714 mmHg 59%
14:00 +21°C° 0 mm 1 mps 713 mmHg 56%
15:00 +21°C° 0 mm 1 mps 713 mmHg 56%
16:00 +20°C° 0 mm 2 mps 713 mmHg 56%
17:00 +20°C° 0 mm 2 mps 712 mmHg 57%
18:00 +19°C° 0 mm 2 mps 713 mmHg 60%
19:00 +18°C° 0 mm 2 mps 713 mmHg 62%
20:00 +18°C° 0 mm 1 mps 713 mmHg 65%
21:00 +18°C° 0 mm 1 mps 714 mmHg 66%
22:00 +18°C° 0 mm 1 mps 714 mmHg 68%
23:00 +16°C° 0 mm 1 mps 714 mmHg 69%

17 June, Thursday

Time Temperature Precipitation Wind Pressure Humidity
00:00 +16°C° 0 mm 1 mps 714 mmHg 70%
01:00 +16°C° 0 mm 1 mps 714 mmHg 71%
02:00 +16°C° 0 mm 1 mps 714 mmHg 71%
03:00 +15°C° 0 mm 1 mps 714 mmHg 72%
04:00 +15°C° 0 mm 1 mps 714 mmHg 73%
05:00 +15°C° 0 mm 1 mps 714 mmHg 74%
06:00 +15°C° 0 mm 1 mps 714 mmHg 73%
07:00 +15°C° 0 mm 1 mps 715 mmHg 73%
08:00 +15°C° 0 mm 1 mps 715 mmHg 73%
09:00 +18°C° 0 mm 1 mps 715 mmHg 68%
10:00 +19°C° 0 mm 1 mps 715 mmHg 62%
11:00 +21°C° 0 mm 1 mps 715 mmHg 57%
12:00 +19°C° 0 mm 2 mps 715 mmHg 58%
13:00 +19°C° 0 mm 2 mps 714 mmHg 59%
14:00 +19°C° 0 mm 3 mps 713 mmHg 60%
15:00 +18°C° 0 mm 3 mps 713 mmHg 63%
16:00 +17°C° 0 mm 2 mps 713 mmHg 67%
17:00 +16°C° 0 mm 2 mps 713 mmHg 71%
18:00 +15°C° 0 mm 2 mps 713 mmHg 73%
19:00 +14°C° 0 mm 2 mps 714 mmHg 76%
20:00 +14°C° 0 mm 2 mps 714 mmHg 79%
21:00 +13°C° 0 mm 2 mps 715 mmHg 79%
22:00 +13°C° 0 mm 2 mps 715 mmHg 79%
23:00 +13°C° 0 mm 2 mps 715 mmHg 79%
Show more